User: anonymous   Login
Location: Unspecified
(0.0000°N, 0.0000°E)
Time: 08:20:39
(UTC+00:00)
Language:

PEGASUS - Orbit

View from above orbital plane
View from above orbital plane
View from above satellite
View from above satellite

Ground track
Ground track

The orbit data is extracted from the following two-line orbital elements,

1 42784U 17036V   18267.86540984 +.00001328 +00000-0 +61287-4 0  9992
2 42784 097.3913 325.9659 0014001 088.0594 272.2245 15.21881275069670
Epoch (UTC): 24 September 2018 20:46:11
Eccentricity: 0.0014001
inclination: 97.3913°
perigee height: 490 km
apogee height: 510 km
right ascension of ascending node: 325.9659°
argument of perigee: 88.0594°
revolutions per day: 15.21881275
mean anomaly at epoch: 272.2245°
orbit number at epoch: 6967

The dashed part of the orbit path shows where the satellite is in the earth's shadow,  

DLR